Погода в Волоконовке

Россия / Белгородская область     51°02′59″N   37°51′42″E
темп.,
°C
ветер,
м/с
пор.,
м/с
влажн.,
%
обл.,
%
осадки,
мм/ч
давл.,
гПа
погр.,
м
18 мая, ср
ср1800:00+6зсз367788 0.0 1009110
03:00+4зсз33890 0.0 101034
06:00+5сз24882 0.0 1010130
09:00+11ссз56651 0.0 1010896
12:00+11ссз556988 0.2 1011970
15:00+11ссз447218 0.4 1012819
18:00+13с467038 0.3 1012979
21:00+9ссв4108971 0.5 1014321
19 мая, чт
чт1900:00+7с49926 0.1 1015194
03:00+5ссз310940 0.1 1016208
06:00+6с39915 0.0 1018299
09:00+11с67650 0.0 1018842
12:00+14с57525 0.0 10171537
15:00+16ссз684987 0.0 10162030
18:00+15ссз4758100 0.0 10151073
21:00+10сз3878100 0.2 1016159
20 мая, пт
пт2000:00+8сз368293 0.0 1017114
03:00+7сз238671 0.0 101742
06:00+9сз128347 0.0 101888
09:00+12ссз5670100 0.1 1019962
12:00+14сз566543 0.5 10191193
15:00+16сз5653100 0.9 10171777
18:00+14с2366100 0.1 1017769
21:00+11юв1172100 0.1 101610
21 мая, сб
сб2100:00+10ююз1175100 0.0 101415
03:00+9вюв2391100 0.9 101182
06:00+9в4798100 6.3 1008386
09:00+9в61097100 18.0 1006572
12:00+9всв71192100 2.3 1006663
15:00+8всв61091100 2.4 1008584
18:00+9в488634 0.0 1009609
21:00+6вюв2293100 0.0 101014
22 мая, вс
вс2200:00+5в229499 0.0 101015
03:00+5в2593100 0.0 1009109
06:00+6в3887100 0.0 1007283
09:00+8в4981100 0.0 1006482
12:00+10вюв6878100 1.6 10061040
15:00+9юв4788100 2.1 1006544
18:00+9юв2386100 0.4 1006395
21:00+8з119393 1.6 100614